Find Starlink 31747

NORAD ID: 59564 Int'l Des: 2024-076 Owner: SPXS Country: US Constellation: starlink operational
LEOCIRCULAR

リアルタイム位置

3D地球を読み込み中...

Starlink 31747について

説明を読み込み中...

次回通過

Passes for default location (London). Set your location on the main map for personalized predictions.

高度履歴

Loading altitude history...

軌道要素

1 59564U 24076A 26132.03989299 .00001400 00000-0 60415-4 0 9996
2 59564 43.0023 0.6490 0001946 270.9424 89.1205 15.27572424116305
Epoch: May 12, 2026 • Age: 15 hours

現在のステータス

高度 495.1 km
速度 7.62 km/s
衛星直下点 -43.11°S, 149.37°E
打ち上げ日 Apr 23, 2024
運用期間 2 years
タイプ internet

技術仕様

分類 Payload
質量 730.00 kg
乾燥質量 700.00 kg
総質量 730.00 kg
長さ 0.30 m
直径 4.10 m
スパン 29.00 m
形状 Box + pan
製造者 SPXS
バスタイプ Starlink V2M
フェーズステータス In Orbit
所有者/国 SPXS/US

Most Searched